Theta_e
331 331 332 332 332 331 330 329 328 329 328 327 326 324 323 321 321 321 321 322 322 320 318 318 317 316 316 317 317 316 315 312 311 310 306 304 305 306 304 303 303 302 301 301 300 300 301 301 302 302 302 302 302 302 302 302 302 301 301 301 301 301 301 300 300 299 299 299 299 298 298 298 298 297 298 298 298 299 299 301 302 301 300 301 302
331 331 331 330 330 329 328 328 327 327 326 325 325 323 322 321 321 321 321 322 322 320 318 317 317 317 317 317 317 316 314 312 311 310 307 303 304 305 304 303 303 302 302 302 301 301 301 301 302 302 302 302 302 302 302 302 302 301 301 301 301 300 300 300 300 299 298 298 298 298 298 298 297 297 297 297 297 298 298 299 300 301 299 299 300
330 330 330 328 328 328 327 327 326 326 325 324 324 323 321 321 321 322 321 322 322 319 317 317 317 317 317 317 317 315 313 312 311 309 307 304 302 303 304 303 303 303 303 302 302 301 301 301 302 302 302 302 302 302 302 302 302 301 301 300 300 300 299 299 299 298 297 297 297 297 297 297 297 296 297 297 297 297 298 298 298 299 299 298 299
329 329 328 328 328 327 326 326 325 324 324 323 322 321 321 321 321 321 321 322 321 318 316 317 316 316 316 317 316 314 312 311 310 309 307 305 302 303 304 305 304 304 303 303 302 302 302 302 301 302 302 302 302 302 302 302 302 301 301 300 299 299 298 298 298 297 297 296 297 297 297 297 297 296 297 297 297 297 297 297 298 298 298 297 298
329 328 328 327 326 326 325 325 324 323 323 322 321 320 321 321 321 321 321 321 319 317 316 316 316 315 315 315 315 314 312 311 310 308 307 306 303 302 304 305 304 304 304 303 303 302 302 302 302 302 302 302 302 302 302 303 302 301 300 299 299 298 298 298 297 297 296 296 296 296 297 297 297 297 297 297 297 297 297 297 297 297 298 297 297
328 328 327 326 325 325 324 324 323 323 321 320 320 320 321 320 320 320 320 320 318 316 316 316 315 315 314 314 314 313 312 311 310 308 307 306 304 302 303 305 304 304 304 304 303 303 302 302 302 302 302 302 302 302 302 302 302 302 300 299 299 298 298 298 297 297 296 296 296 296 296 296 296 297 296 296 297 297 297 297 297 297 297 296 296
327 326 326 325 324 324 323 323 322 321 320 320 320 320 319 318 318 318 319 318 317 316 316 315 315 314 314 313 312 311 310 309 308 307 306 305 304 302 303 304 304 304 305 304 304 304 303 303 302 302 302 302 302 302 302 302 302 302 301 300 299 298 298 297 297 297 296 296 296 296 296 296 296 296 296 296 296 296 296 296 296 296 297 296 295
327 325 325 324 323 323 322 322 322 321 319 319 319 318 317 317 317 317 317 317 316 316 316 315 314 313 313 312 311 310 308 308 307 306 305 304 303 303 303 303 304 304 305 305 304 304 304 304 303 303 303 302 302 302 302 302 302 302 301 300 299 299 298 297 297 296 296 296 296 296 296 296 296 296 296 296 296 296 296 296 296 296 296 296 295
325 324 324 323 323 322 322 321 321 320 319 319 319 317 316 316 316 316 316 315 315 315 315 314 313 312 312 311 310 309 308 307 306 306 305 304 303 302 302 303 304 304 305 305 305 304 304 304 304 304 303 303 302 302 302 302 302 302 301 300 299 299 298 297 297 297 296 296 296 296 296 295 296 295 295 295 295 296 296 296 296 296 296 296 295
324 323 323 322 322 322 321 321 320 319 318 319 318 315 315 315 315 315 315 314 314 314 313 313 312 311 310 310 309 308 307 307 306 306 305 304 302 301 301 302 303 304 305 305 305 304 304 304 304 304 303 303 302 302 303 302 302 302 301 300 300 299 298 298 297 297 296 296 296 296 296 295 296 295 295 295 295 295 295 295 295 295 295 295 295
323 322 322 321 321 321 320 320 319 318 318 318 317 314 314 314 314 314 314 313 313 312 312 311 311 310 309 308 308 307 307 306 306 305 304 303 301 300 299 301 303 304 304 304 304 304 303 303 304 303 303 303 302 302 303 302 302 302 301 300 300 300 299 298 298 297 297 296 296 296 296 296 296 296 295 295 295 295 295 295 295 295 295 295 295
322 321 321 320 320 320 319 319 318 318 318 317 315 314 313 313 313 312 312 311 311 311 310 310 309 308 308 307 307 306 306 305 305 305 303 302 301 299 298 300 303 304 304 304 303 303 303 303 303 303 303 303 302 302 302 302 301 302 302 301 300 300 299 299 298 298 297 297 296 296 296 296 296 296 296 295 295 295 295 295 295 295 295 294 294
321 321 320 320 319 319 318 318 318 317 317 316 314 313 313 312 312 311 310 309 309 309 309 308 307 307 307 306 305 305 305 304 304 304 303 301 299 297 298 301 303 303 303 303 303 302 303 303 303 302 302 302 302 302 302 302 301 301 302 301 301 300 300 299 299 299 298 298 297 296 296 296 296 296 296 295 295 295 295 295 295 295 295 294 294
320 320 320 319 319 318 318 317 317 316 316 315 313 312 312 311 311 310 309 308 308 308 307 306 306 305 305 303 302 302 302 303 303 302 301 298 297 297 299 301 302 302 302 302 302 302 302 302 302 302 301 302 302 302 301 301 301 301 301 302 301 300 300 300 300 299 299 298 298 297 297 297 297 297 296 296 295 295 294 294 294 294 295 294 294
320 320 319 319 318 318 317 317 317 316 314 313 312 311 311 310 309 308 308 307 307 307 306 305 303 301 300 298 297 298 299 300 300 299 297 296 297 298 300 300 300 300 300 300 300 301 301 302 302 301 301 301 301 302 301 301 301 301 301 301 301 301 301 300 300 300 299 299 298 298 297 297 297 297 297 297 296 295 295 294 294 294 294 294 294
319 319 319 318 318 318 317 317 316 315 313 311 310 310 310 309 308 307 306 306 306 305 304 303 300 297 295 295 295 296 297 297 296 296 296 296 297 298 299 299 299 298 298 299 299 299 300 301 301 301 301 301 301 301 301 301 301 300 300 301 301 301 301 301 300 300 299 299 298 298 298 298 297 297 297 297 297 296 295 294 294 294 294 294 294
319 319 319 318 318 317 317 317 316 314 311 310 309 309 309 308 307 307 306 305 304 304 303 302 300 297 296 295 295 295 295 295 295 295 296 296 297 297 298 298 297 298 297 298 298 299 299 300 300 300 300 300 301 301 301 301 300 300 300 300 300 300 300 300 300 300 299 299 299 298 298 298 298 297 297 297 297 297 296 295 294 294 294 294 294
319 319 318 318 318 317 316 316 315 313 310 309 309 309 308 308 307 306 306 305 304 303 303 303 302 300 299 298 297 296 295 295 295 295 295 296 296 297 297 297 297 297 297 297 298 298 298 299 299 300 300 300 300 301 301 300 300 300 300 300 300 300 300 300 300 299 299 299 299 298 298 298 298 298 297 297 297 297 296 295 294 294 294 293 293
318 318 318 318 317 317 316 316 315 312 310 309 309 309 308 307 306 305 305 305 304 303 303 304 304 303 302 301 300 299 297 295 294 294 295 295 296 296 297 297 297 297 297 297 297 297 298 298 298 299 299 299 300 300 300 300 300 300 300 300 300 299 299 299 299 299 298 298 298 298 298 298 298 298 298 297 297 297 296 296 295 295 294 294 293
318 318 318 317 317 317 316 314 313 311 309 309 309 309 308 307 305 304 304 304 303 303 303 303 304 304 303 303 302 301 299 297 296 295 295 294 295 296 296 297 297 297 297 297 297 297 297 297 297 297 298 299 299 300 300 300 300 299 299 300 300 299 299 299 298 298 298 298 298 298 298 298 298 298 298 298 297 297 297 297 296 295 295 294 294
318 318 317 317 316 316 314 313 313 311 310 309 309 308 308 307 305 303 303 303 303 303 303 303 303 303 304 304 303 301 301 300 298 297 296 295 294 295 296 296 297 297 297 297 297 297 297 297 296 296 297 297 298 299 299 299 299 299 299 299 299 299 299 299 298 298 298 298 298 297 297 297 297 298 298 298 297 297 297 297 297 296 295 295 295
317 317 317 316 316 314 313 314 313 312 310 309 308 307 306 306 305 303 302 302 302 302 302 302 303 303 303 304 304 303 302 301 300 299 298 296 294 294 295 296 297 297 297 297 297 297 297 297 297 296 296 296 297 298 298 298 298 299 299 299 299 299 299 299 298 298 298 298 297 297 297 297 297 297 297 297 297 297 297 297 297 296 296 295 295
317 317 317 316 315 314 314 314 313 311 309 309 309 307 305 305 304 303 301 300 301 302 301 302 302 302 303 303 304 304 302 301 301 300 299 297 296 295 295 296 297 297 297 297 297 297 297 297 297 297 296 296 296 297 297 297 297 298 298 298 298 298 298 298 298 298 298 297 297 296 296 296 296 296 296 296 297 297 297 297 297 297 296 296 295
316 316 316 315 314 314 314 313 311 310 309 308 308 307 305 304 304 302 301 300 300 300 301 301 301 302 302 302 303 304 303 302 301 301 299 298 297 295 295 296 297 297 297 297 297 297 297 297 297 297 297 296 296 296 296 296 297 297 297 297 297 297 297 297 297 297 297 297 296 296 295 296 296 295 295 295 295 295 296 297 297 297 297 296 296
316 316 315 314 314 314 313 311 310 310 309 308 308 307 305 304 303 302 301 299 298 299 299 300 301 301 301 302 302 303 304 303 301 300 299 299 297 295 295 297 297 297 298 298 298 298 297 297 297 297 296 296 296 295 295 296 296 296 296 296 296 296 296 296 296 296 296 295 295 295 295 295 295 295 295 294 294 294 295 295 296 296 296 296 296
316 314 313 314 314 314 312 310 309 309 308 309 309 308 306 305 303 301 300 299 298 298 298 299 300 300 301 301 301 302 303 303 302 300 299 298 296 295 296 297 298 297 298 298 298 298 297 297 296 296 296 296 296 295 295 295 295 295 295 295 295 295 295 296 296 296 295 295 294 295 295 295 295 295 295 295 294 294 294 294 294 294 295 295 295
314 313 313 314 313 312 311 309 308 307 307 307 307 307 306 305 303 301 300 299 298 297 297 298 299 299 300 300 301 301 302 302 301 299 298 297 296 296 297 298 297 298 298 297 297 297 297 297 296 296 296 296 295 295 295 295 295 295 295 295 295 295 295 295 295 295 295 294 294 294 294 294 295 295 295 295 295 294 294 294 294 294 294 294 294
314 314 314 313 312 310 309 308 307 306 306 306 306 306 305 304 304 303 302 301 299 297 296 297 298 299 300 300 300 300 300 300 300 299 298 297 296 297 297 297 297 298 297 297 297 297 297 297 296 296 296 296 295 295 295 295 294 294 295 295 294 294 294 294 294 294 294 294 294 294 294 294 294 294 295 295 295 294 294 294 294 294 294 294 293
314 313 313 311 310 309 308 308 307 306 305 305 305 305 305 305 305 305 304 302 300 297 296 297 298 299 300 300 300 299 299 299 299 299 298 297 296 297 297 297 298 297 297 297 297 296 297 297 296 296 296 295 295 295 295 295 295 294 294 294 294 294 294 294 294 294 293 293 294 293 293 293 293 294 294 294 294 294 294 294 294 294 294 293 293
312 311 310 309 309 308 307 307 306 306 305 304 304 304 304 304 305 304 303 302 299 296 294 295 296 298 299 300 300 300 300 300 299 298 297 297 296 296 297 297 297 297 297 297 296 296 296 296 296 296 296 295 295 294 295 295 295 295 294 294 294 294 294 294 294 294 294 293 293 293 293 293 293 293 293 293 293 293 293 294 294 294 294 293 293
310 309 309 308 308 308 307 306 305 305 305 304 304 303 302 301 302 302 302 301 299 295 293 293 294 296 297 298 299 299 299 299 298 297 297 297 296 297 297 297 297 296 296 296 295 295 295 295 294 294 294 294 294 294 294 293 293 294 294 294 294 294 294 294 294 294 294 294 293 293 293 293 293 293 293 293 293 293 293 293 293 293 293 293 293
309 308 308 308 308 307 306 305 305 304 304 303 304 303 302 301 300 300 301 300 297 294 292 293 293 294 295 296 297 297 298 298 297 297 297 296 296 297 297 297 296 295 295 295 294 294 294 294 293 293 293 293 293 293 293 292 292 292 293 294 294 294 294 294 294 294 294 294 294 294 294 293 293 293 293 293 293 293 293 293 293 293 293 293 292
310 309 307 307 307 306 306 305 304 304 304 304 303 303 302 301 300 299 299 298 296 294 293 293 293 293 294 295 295 295 295 296 296 297 296 296 297 297 297 297 296 295 295 295 294 293 293 293 293 292 292 292 292 292 292 291 291 290 290 292 294 294 294 294 294 294 294 294 294 294 294 293 293 293 293 293 293 293 293 293 292 292 293 293 292
311 310 309 308 306 305 305 305 304 304 304 304 304 303 302 302 301 300 298 297 297 297 295 293 293 294 294 294 294 294 295 295 296 297 297 297 297 297 297 296 295 294 295 295 294 294 293 293 293 293 293 292 292 292 291 291 291 291 290 290 293 294 294 293 293 293 293 293 293 294 293 293 293 293 293 293 293 293 293 293 293 292 293 292 292
310 309 308 307 306 306 305 305 304 304 303 303 303 303 302 302 301 301 299 298 298 299 298 295 294 294 295 295 295 295 296 296 296 297 298 297 297 297 296 296 295 294 295 295 295 295 294 294 294 294 293 293 292 292 292 292 291 291 290 290 291 292 293 293 292 292 292 292 292 293 293 293 293 293 293 293 293 292 293 293 293 292 292 292 292
308 307 306 306 305 305 304 304 305 305 304 304 303 303 302 302 301 301 300 299 299 300 300 298 296 295 296 297 297 297 298 298 298 299 298 298 297 297 296 295 295 295 295 295 295 295 295 294 294 294 294 294 293 293 293 293 292 292 291 291 290 290 291 291 291 291 291 290 290 290 291 292 293 293 292 293 293 292 292 292 292 292 292 292 292
308 307 306 305 304 304 304 304 304 304 304 304 303 302 302 302 301 301 300 300 300 300 300 300 298 296 296 297 298 298 299 300 300 300 299 298 297 295 294 295 295 295 295 295 295 295 295 295 295 294 294 294 294 293 293 293 293 292 292 292 291 291 291 291 290 290 290 289 289 289 289 290 292 292 291 292 292 292 292 292 292 292 292 292 292
308 308 307 306 304 303 303 302 303 303 303 303 302 302 301 301 301 300 300 300 300 300 300 300 299 297 296 296 297 297 298 299 298 297 297 296 294 293 294 294 295 295 295 295 295 295 295 295 295 295 295 294 294 294 293 293 293 293 292 292 292 292 291 291 291 291 290 290 290 289 288 289 291 292 291 291 291 291 291 292 292 292 291 291 291
307 307 307 307 306 303 302 302 303 303 302 301 301 301 301 300 299 300 300 300 299 299 299 299 299 299 298 297 297 298 298 297 296 295 295 293 292 293 293 294 294 295 295 295 295 295 295 295 295 295 295 295 294 294 294 294 293 293 293 293 292 292 292 291 291 291 291 291 290 290 289 289 290 291 291 290 290 290 290 290 291 291 291 290 290
306 306 306 307 306 303 302 302 302 302 301 301 301 300 300 299 299 299 299 298 298 298 298 298 299 299 300 299 299 299 297 295 294 294 293 292 291 292 293 294 294 294 295 295 296 295 295 295 295 295 295 295 295 294 294 294 294 293 293 293 293 293 292 292 291 291 291 291 291 291 290 289 290 290 290 290 290 289 290 290 290 291 290 290 290
306 305 305 305 304 302 301 301 301 301 301 301 300 299 299 299 299 299 298 298 297 297 297 298 299 300 300 300 299 297 295 294 293 293 291 291 291 292 292 293 294 294 295 296 296 296 295 295 295 295 295 295 295 295 295 294 294 294 293 293 293 293 293 293 292 292 292 292 292 291 291 290 290 290 290 290 290 290 290 290 290 290 290 290 290
305 305 304 303 302 301 301 300 299 299 299 300 299 299 299 299 298 298 298 297 297 297 297 298 298 298 298 297 295 293 293 293 292 291 290 290 291 291 291 292 293 294 295 296 296 296 296 295 295 295 295 295 295 295 295 295 295 294 294 294 294 294 294 293 293 293 292 292 292 292 292 292 291 291 290 290 290 290 291 291 290 290 290 290 290
305 305 304 302 301 301 301 300 299 298 298 298 298 298 299 298 298 298 298 297 297 296 296 297 297 296 295 294 292 291 291 291 291 290 291 291 291 291 291 292 294 295 296 296 297 297 296 296 296 296 296 296 296 296 296 296 295 295 295 295 294 294 294 294 293 293 293 293 292 292 292 292 292 292 291 290 290 291 291 291 291 291 290 290 290
305 305 304 302 302 301 300 300 299 298 298 297 297 298 298 298 298 298 298 297 297 297 297 297 297 296 295 293 292 291 290 290 290 290 290 290 291 291 291 292 294 296 296 297 297 297 297 297 296 296 296 296 296 297 296 296 296 296 295 295 295 295 295 294 294 294 293 293 293 292 292 292 292 292 292 291 291 291 291 291 291 291 291 291 291
305 304 303 301 301 300 300 300 300 299 299 298 297 297 298 298 297 297 297 297 297 297 297 297 297 296 296 294 292 291 291 290 290 290 290 290 290 290 291 292 294 295 296 297 297 297 297 297 297 297 297 297 297 297 297 297 297 296 296 296 295 296 296 295 295 295 294 293 293 293 293 293 292 292 292 292 292 292 292 291 291 290 290 290 290
304 303 302 301 300 300 299 299 300 299 299 299 298 298 298 297 297 297 298 297 297 297 296 296 296 296 295 294 293 292 291 291 291 290 290 290 290 290 291 291 292 294 295 296 296 296 297 297 297 297 297 297 297 297 297 297 297 297 297 296 296 297 297 296 296 296 295 295 294 294 294 294 294 293 293 293 293 292 292 292 292 291 291 291 291
304 303 303 302 301 300 300 300 299 299 299 299 299 299 298 298 297 297 297 297 296 295 295 295 295 294 293 292 291 291 291 291 291 291 291 291 291 291 291 291 291 292 293 295 296 297 297 297 297 297 297 297 297 297 297 298 297 297 297 297 297 297 297 297 297 296 296 295 295 295 295 295 295 295 295 294 294 294 293 293 293 293 293 292 292
303 303 302 301 301 300 300 300 300 300 299 298 298 299 299 298 297 297 296 295 295 294 294 293 293 293 292 292 292 291 291 291 291 291 291 291 291 291 291 292 293 294 294 295 296 297 298 298 297 297 297 297 297 297 298 298 298 297 297 297 297 297 297 297 297 297 297 296 296 295 295 295 295 295 295 295 295 294 294 294 294 294 294 293 293
303 303 302 301 301 300 300 301 301 300 299 298 299 299 299 298 297 296 295 295 295 294 293 293 294 294 294 294 294 294 293 292 291 291 292 293 294 294 293 294 295 296 296 297 297 297 297 297 297 298 298 298 298 298 298 298 298 298 298 298 298 298 298 298 297 297 297 296 296 296 296 295 295 295 295 295 295 294 294 294 294 294 294 293 293
303 302 302 301 301 301 301 301 300 300 299 299 300 300 299 298 297 296 296 296 295 294 294 294 295 295 295 295 296 296 296 295 294 294 295 296 296 297 296 296 297 297 297 297 297 297 297 297 297 297 298 298 298 298 299 299 299 299 298 298 298 298 298 298 298 298 297 297 297 296 296 296 296 295 295 295 295 294 294 294 294 294 293 293 293
302 301 301 300 300 300 300 300 300 299 300 300 300 299 298 297 297 297 297 296 296 295 295 296 296 296 297 296 297 297 298 297 297 298 298 298 298 298 298 298 299 298 298 298 298 298 298 298 297 297 298 298 298 299 299 299 299 299 299 299 299 299 298 298 298 298 297 297 297 296 296 296 296 296 295 295 295 295 295 294 294 294 293 293 293
Wind_Speed
27 28 28 27 28 27 25 25 25 25 25 24 22 19 18 21 24 24 22 19 17 16 16 17 17 19 19 16 15 16 16 16 15 15 17 18 18 19 20 22 24 25 26 26 26 26 27 26 25 24 25 25 25 25 26 26 26 27 27 26 26 23 21 18 11 11 20 27 26 27 28 26 27 30 29 28 29 28 29 27 25 30 35 33 31
29 29 28 27 27 27 26 26 25 25 24 23 21 19 20 23 23 22 20 18 16 17 17 17 17 17 17 15 15 17 16 16 15 14 17 18 18 19 20 22 24 25 25 26 26 26 27 26 25 24 24 25 25 24 25 25 26 27 27 26 26 25 23 20 15 12 17 25 29 29 29 28 28 30 29 27 29 28 29 29 26 27 33 35 32
29 29 28 28 27 27 26 25 25 24 23 22 20 19 22 24 21 19 18 16 17 19 18 18 17 16 15 15 16 18 17 16 15 15 16 17 18 19 20 21 22 23 24 24 24 25 25 25 24 23 24 24 24 24 23 24 25 26 26 26 25 25 25 23 20 16 16 21 26 29 30 28 28 30 28 25 27 28 28 29 26 25 30 34 33
29 29 28 27 27 26 26 25 24 23 21 19 19 20 23 22 19 17 17 17 20 22 20 19 17 16 16 17 18 19 18 17 16 16 15 16 17 19 20 21 21 21 21 21 21 22 23 23 22 21 22 23 23 23 23 22 24 25 26 26 26 26 27 26 23 20 19 21 24 27 29 28 28 31 31 28 28 28 27 28 28 27 29 33 33
29 29 28 27 27 26 25 24 24 22 20 19 20 21 21 19 17 17 18 21 24 24 21 20 18 17 17 18 19 19 18 17 16 16 16 15 16 17 19 20 19 19 18 18 19 20 20 20 20 20 20 21 22 22 22 21 21 24 25 26 28 28 28 27 26 24 23 22 24 27 30 30 29 32 33 31 31 32 30 29 30 28 29 33 34
29 29 28 28 27 26 26 25 23 20 19 20 20 18 16 16 17 19 21 24 26 24 22 21 19 18 18 18 19 19 18 17 16 16 16 14 14 16 18 18 18 17 17 16 16 17 18 18 18 18 18 19 20 20 21 20 19 21 24 25 27 29 29 28 27 26 25 24 24 26 29 31 30 32 33 30 29 31 32 31 32 31 29 32 36
30 29 29 28 27 27 26 25 22 20 20 20 17 14 15 18 21 24 25 25 25 23 22 21 19 18 18 18 19 19 18 17 16 16 15 13 13 14 16 17 17 15 15 15 14 14 15 16 16 16 17 17 18 18 19 19 17 18 21 24 26 28 29 28 27 26 26 25 25 25 26 28 29 30 31 31 29 30 30 28 30 32 30 31 35
30 29 29 28 28 27 26 25 21 19 20 19 14 15 19 22 24 26 25 25 23 22 21 21 21 20 19 19 20 19 18 17 16 15 14 12 12 13 15 16 15 14 13 13 13 13 12 12 12 13 14 15 15 15 17 17 16 17 20 22 25 28 28 27 27 26 26 26 25 25 25 27 28 29 30 33 32 32 32 27 26 30 28 27 32
30 29 28 28 27 26 26 25 20 17 19 17 15 19 23 24 25 25 24 23 22 21 21 21 21 21 20 20 20 19 18 17 15 13 12 11 11 12 14 15 14 13 12 12 13 12 11 11 11 10 11 12 13 13 15 15 15 16 19 21 24 27 28 27 26 26 26 25 25 26 26 27 29 29 30 32 30 28 30 29 27 29 28 26 30
30 29 28 27 27 26 26 23 18 18 19 18 18 22 24 24 24 24 22 22 21 21 21 22 22 22 21 21 20 19 17 16 14 11 10 10 11 12 13 14 14 12 12 13 13 13 12 11 11 11 11 12 12 12 12 13 14 15 18 20 23 26 27 28 27 26 25 25 24 25 25 26 28 29 28 29 28 27 28 28 27 28 29 27 28
29 28 27 26 26 26 25 22 19 19 20 19 21 24 24 24 23 22 21 21 21 21 22 22 22 22 22 21 20 18 17 15 13 11 9 9 9 10 12 14 14 13 13 14 15 14 14 13 12 12 11 11 11 11 11 12 13 14 17 19 21 24 26 27 27 27 26 25 24 25 24 24 28 29 29 29 29 28 27 27 26 26 26 23 20
29 27 27 27 27 26 24 21 20 19 20 21 24 25 24 24 23 21 21 21 21 22 23 23 23 22 21 20 18 17 16 14 12 10 9 8 9 10 13 15 15 14 14 14 15 14 14 13 12 12 11 11 11 11 12 13 13 13 15 18 21 23 25 26 27 27 27 26 25 25 24 24 27 29 29 29 29 29 29 28 27 25 24 22 19
28 27 27 27 27 26 24 21 20 20 21 24 27 26 25 24 23 22 22 22 22 23 23 23 23 22 20 19 17 16 15 13 11 10 9 9 10 12 15 16 16 14 14 13 13 13 13 12 12 12 12 11 10 10 11 12 13 13 13 15 19 21 23 24 24 25 26 26 26 26 24 25 27 28 28 29 29 30 30 29 28 25 23 23 23
27 27 27 27 26 25 24 22 20 21 24 27 28 27 26 24 23 22 23 23 24 24 24 24 22 20 18 17 16 16 15 13 11 11 11 12 14 15 16 16 16 14 13 12 11 11 12 11 11 11 11 10 9 10 11 11 12 12 12 13 15 18 20 21 22 22 23 24 25 25 25 26 27 28 29 31 30 29 27 27 26 23 21 21 22
27 27 26 26 26 26 25 23 21 22 26 28 29 28 26 25 24 24 24 24 24 24 24 23 22 19 18 17 18 17 15 14 14 14 16 17 17 18 18 18 17 15 14 13 12 11 11 11 11 10 10 10 10 10 11 10 11 13 13 12 12 14 16 17 18 18 19 21 22 22 24 25 26 27 29 31 31 29 27 27 26 23 22 23 25
28 28 28 28 29 28 27 25 23 24 28 29 29 28 27 26 25 25 25 25 24 24 24 23 22 21 20 19 20 20 18 17 17 19 19 19 20 20 20 20 19 18 16 15 14 13 12 12 11 11 10 10 10 10 11 11 12 14 14 13 12 12 12 13 14 15 16 17 18 19 20 21 22 25 27 30 32 32 32 33 33 30 28 26 26
30 31 31 32 32 31 30 28 26 27 30 30 30 30 28 27 26 26 26 26 25 25 24 24 22 22 22 21 22 23 21 19 19 19 20 20 20 21 21 21 20 18 17 16 15 14 13 12 11 11 10 10 10 10 11 11 12 13 14 13 13 13 12 11 11 11 12 13 14 15 16 18 20 21 24 27 29 32 34 34 33 31 28 23 20
31 32 32 33 33 31 32 32 30 30 32 31 31 31 29 28 27 26 26 27 26 25 24 24 23 22 21 21 21 23 23 20 18 19 19 19 19 21 21 21 20 18 17 16 14 13 13 12 10 10 10 10 10 10 11 11 12 12 12 13 14 13 12 11 9 9 10 10 11 12 13 15 17 19 22 24 26 30 33 32 30 29 27 21 18
33 34 34 33 33 31 31 31 31 31 32 32 32 31 29 28 27 26 26 28 27 26 24 24 23 22 20 20 20 21 22 21 18 18 18 17 18 19 20 20 20 18 16 15 14 13 12 11 9 9 9 9 9 9 10 9 10 10 10 11 13 13 11 10 9 9 9 9 10 11 12 14 15 16 18 21 23 27 29 29 30 30 27 23 21
33 33 32 32 32 30 28 28 28 29 30 31 31 30 29 28 27 27 27 27 27 26 24 23 23 22 21 20 19 20 21 21 19 17 16 16 17 18 19 20 20 18 16 15 15 14 12 11 10 9 8 8 8 8 8 8 8 9 9 10 12 13 11 11 10 9 9 9 10 12 12 12 13 14 16 18 20 23 25 26 29 30 29 27 26
32 32 31 30 29 27 25 25 26 27 29 30 30 29 28 27 27 27 27 27 27 26 24 23 22 21 20 20 21 20 20 20 20 18 15 15 15 16 18 19 19 18 17 16 15 14 13 12 11 9 8 7 7 7 8 8 8 8 8 9 11 11 10 10 9 9 9 10 11 12 13 13 12 13 14 15 17 18 20 22 24 27 28 28 27
33 32 32 30 27 24 24 25 27 29 31 31 30 29 28 26 25 25 25 27 26 25 24 23 22 20 20 20 22 22 21 20 19 18 16 14 14 15 17 19 19 18 17 16 14 13 12 11 11 10 8 8 7 7 8 8 7 8 8 9 10 10 8 7 7 7 8 9 11 12 13 14 14 13 13 13 13 14 16 18 20 22 24 25 25
31 31 32 30 27 26 26 27 29 33 34 32 31 29 28 26 25 24 25 26 26 25 24 23 22 21 20 20 22 24 24 22 20 18 17 15 13 14 16 18 18 16 15 14 12 11 11 11 10 9 8 8 7 7 7 7 7 8 9 10 10 8 7 6 5 5 5 6 9 11 13 14 15 15 15 13 12 12 12 13 16 18 19 20 22
30 29 28 26 25 26 26 27 30 32 33 32 31 29 28 26 24 24 24 25 26 26 24 24 23 21 20 20 21 23 26 26 22 19 18 15 13 14 17 18 17 14 13 12 10 10 10 10 9 8 7 7 7 7 7 7 7 8 9 9 8 6 6 6 6 5 5 6 8 10 13 14 14 15 15 15 14 13 12 11 12 14 15 16 18
28 26 23 23 25 26 26 27 29 31 32 32 30 29 28 27 26 25 24 25 26 26 25 24 24 23 21 21 20 22 26 27 25 22 19 15 14 16 19 18 16 14 12 10 9 9 10 10 9 8 7 7 6 7 7 7 7 8 7 7 6 5 5 6 6 6 6 7 8 9 11 12 13 14 14 15 15 14 14 13 12 12 13 14 15
26 25 25 27 28 29 29 29 30 32 33 32 30 30 29 28 27 26 25 25 25 26 26 26 25 23 23 22 22 23 25 27 27 24 20 17 17 19 20 18 15 13 11 9 9 10 11 11 10 9 8 7 6 7 7 7 7 7 7 6 6 5 5 5 5 6 7 7 8 8 9 10 11 11 12 12 14 14 14 14 14 14 14 14 15
27 26 28 30 30 31 32 32 32 32 32 31 30 30 29 29 28 28 27 26 26 26 27 26 26 26 24 23 23 24 25 27 28 26 22 21 22 22 21 18 15 13 10 9 9 11 12 12 11 9 8 7 6 6 7 6 6 7 7 7 6 6 5 5 5 5 6 7 7 8 9 8 8 9 10 11 12 12 12 12 14 15 15 16 17
29 29 30 31 31 30 31 33 33 32 31 30 30 30 29 29 28 27 27 27 27 28 29 29 29 29 28 27 26 25 26 28 29 28 25 24 24 24 21 18 15 13 11 11 11 12 13 13 12 11 9 8 7 6 6 6 6 6 7 7 6 6 5 5 5 5 5 5 6 6 7 8 8 9 9 9 10 11 11 11 13 14 15 17 18
30 30 31 31 30 30 30 32 33 32 30 29 29 29 29 29 28 26 26 25 24 27 30 32 32 32 31 30 29 29 29 30 29 27 25 24 24 23 21 18 15 13 13 13 13 14 14 13 13 12 11 9 8 7 6 6 6 6 6 6 6 6 5 5 4 4 4 5 5 5 6 7 8 8 8 9 9 10 10 11 12 13 14 16 18
26 27 28 28 29 29 30 29 30 31 32 31 29 28 27 27 26 25 24 22 22 24 27 30 31 32 32 31 30 30 30 30 28 26 25 24 23 22 20 18 15 13 14 15 15 15 15 14 13 13 12 10 9 8 8 7 6 6 6 6 6 5 4 4 3 3 3 3 4 5 5 6 7 7 8 8 8 9 9 10 11 12 13 15 17
26 26 26 28 29 30 30 29 30 31 32 32 31 29 26 25 24 23 22 21 20 23 25 27 28 30 31 31 30 28 27 26 26 26 25 24 22 21 20 18 15 14 16 17 16 15 15 15 13 13 12 11 10 10 9 8 7 6 6 7 6 6 5 4 2 2 1 1 2 3 4 5 6 6 7 7 8 8 9 9 10 11 12 13 15
26 25 25 28 30 30 30 31 31 31 31 30 30 29 27 25 22 21 21 21 21 23 24 24 25 27 29 30 29 27 25 26 27 26 24 23 21 20 20 18 15 15 17 18 17 16 16 15 14 13 12 12 11 11 10 8 7 6 7 8 8 7 6 5 3 2 1 1 0 1 1 3 4 6 7 7 7 8 9 9 9 10 11 11 12
27 26 26 28 30 30 31 31 32 33 33 32 30 29 29 27 24 21 20 20 21 22 22 23 24 26 27 27 26 24 25 27 27 24 22 21 20 20 20 19 16 15 16 18 18 17 16 15 14 13 13 13 12 11 10 9 7 6 6 8 9 8 7 6 5 4 4 3 2 1 1 2 3 4 6 6 7 7 8 9 9 10 10 10 10
28 29 30 31 31 31 31 32 32 33 33 33 32 30 30 29 27 25 22 21 21 21 22 23 24 26 27 26 24 23 24 25 25 23 21 20 20 20 20 20 18 16 16 17 18 18 17 16 15 14 14 13 13 12 11 10 8 6 6 7 9 9 8 7 6 6 6 5 4 4 3 3 4 4 5 6 6 6 7 8 9 9 10 10 9
28 29 30 32 32 32 33 33 33 32 31 31 32 31 30 29 28 27 26 25 23 22 23 24 25 27 28 27 25 24 24 23 23 22 21 21 20 20 20 21 19 18 17 17 18 19 18 17 16 15 14 14 13 12 11 10 9 8 6 6 8 9 9 9 8 8 8 8 7 7 6 5 5 5 5 5 5 5 6 7 7 8 9 9 9
27 28 29 30 30 31 32 33 33 33 32 31 31 30 30 29 28 27 27 26 25 24 24 25 25 27 29 29 27 26 24 23 23 22 22 21 21 21 22 23 22 19 18 17 17 18 18 18 17 16 15 14 14 13 12 11 10 9 7 6 7 7 8 9 9 9 9 9 9 9 8 7 6 6 5 5 4 5 5 6 6 7 7 8 9
29 29 30 29 29 29 30 31 31 32 31 30 30 29 28 28 27 26 25 25 25 25 26 26 27 28 30 31 29 27 24 23 23 23 22 22 23 23 24 25 23 21 19 17 16 17 18 18 18 17 16 15 14 14 13 12 11 10 9 8 7 7 7 7 7 7 8 9 9 9 9 9 8 7 6 6 5 5 5 6 6 6 7 8 9
30 31 32 31 29 28 28 29 29 29 28 28 28 29 28 27 26 26 25 25 25 26 27 28 29 31 32 33 31 27 24 23 24 25 24 25 25 25 25 25 24 22 19 17 16 16 17 17 17 18 17 16 15 14 14 13 12 12 11 10 9 9 8 8 8 7 7 8 9 9 9 9 9 9 8 7 7 7 7 7 7 7 8 8 9
29 30 31 31 29 28 28 29 29 29 28 28 28 28 28 27 26 25 25 25 25 26 28 29 31 33 34 33 30 27 25 25 26 27 27 27 26 26 26 26 24 22 20 18 17 17 17 17 17 17 17 17 16 15 15 14 14 13 12 12 11 11 11 11 10 9 8 8 9 9 9 9 10 10 9 9 8 8 8 8 8 8 8 9 9
29 29 29 29 29 28 28 29 30 30 30 30 29 28 28 27 27 26 26 26 26 27 28 29 31 32 32 31 30 29 28 28 29 29 29 29 28 27 27 27 26 23 21 19 17 17 17 17 17 18 18 17 17 16 15 15 15 14 14 14 13 12 12 12 12 12 11 10 10 10 10 10 11 11 11 11 10 9 9 9 9 9 9 9 9
30 29 29 29 29 28 27 27 29 30 31 31 30 29 29 28 27 27 27 27 27 28 29 30 31 31 30 30 30 30 30 29 30 30 30 30 29 28 28 28 27 24 21 19 17 17 18 19 19 18 19 18 18 17 16 16 16 16 16 16 15 15 14 14 13 13 13 13 12 12 11 11 12 13 13 12 11 11 10 10 10 10 10 10 10
30 30 30 30 29 29 28 28 27 27 28 29 30 29 29 28 28 28 27 27 27 28 28 29 29 28 29 29 30 30 29 29 29 30 30 29 29 28 28 28 27 24 21 18 17 17 18 20 20 19 19 19 19 18 17 17 17 18 18 18 18 18 17 16 16 16 15 15 15 14 13 12 13 14 14 14 14 13 13 12 11 11 12 12 12
30 30 31 30 29 28 28 28 27 25 25 26 27 28 28 28 28 27 27 27 27 27 27 28 27 27 28 28 28 29 30 29 29 29 29 28 28 28 28 27 26 23 20 18 16 15 16 19 20 19 19 19 19 19 19 19 19 19 19 19 20 20 19 19 19 19 18 18 18 17 16 15 14 14 15 15 15 15 15 15 14 14 14 14 14
29 30 30 30 29 27 27 26 26 25 24 24 24 25 26 26 27 27 27 27 27 26 27 27 27 27 27 27 27 29 30 30 29 28 28 27 28 28 28 27 26 23 21 18 16 15 15 17 19 20 20 20 19 19 20 20 20 20 21 21 21 21 21 21 21 21 21 21 21 20 19 18 17 17 17 16 17 17 17 17 17 17 17 17 17
29 30 29 27 27 26 26 25 25 24 24 23 22 22 23 25 26 26 26 26 26 26 26 26 26 26 26 26 27 29 30 30 29 28 27 27 27 27 27 27 26 25 22 20 18 17 18 18 18 19 20 20 20 20 20 20 21 21 22 22 22 22 22 21 20 20 21 21 22 22 22 21 20 20 20 19 19 19 19 19 19 19 19 19 20
29 28 27 26 25 25 25 25 24 24 24 24 24 23 23 24 24 24 24 25 25 25 24 23 23 25 25 26 27 28 29 29 28 27 26 26 25 25 25 26 26 26 25 23 21 21 21 20 20 21 21 21 21 21 21 21 21 22 23 24 24 23 23 21 20 20 20 21 22 22 22 22 22 22 21 21 21 21 22 21 21 21 22 22 22
27 27 27 26 25 24 23 23 23 22 23 24 24 24 23 24 24 23 23 23 23 21 20 20 21 23 24 24 25 26 27 27 27 26 24 24 24 24 24 24 25 25 26 26 25 23 21 20 21 22 22 23 23 23 23 23 23 24 24 25 25 26 25 24 23 22 22 22 23 23 23 24 24 24 24 24 24 24 25 25 25 25 25 25 25
26 25 24 24 23 22 21 21 20 21 22 23 22 22 22 22 23 23 22 21 20 19 18 19 20 21 22 22 22 23 24 25 25 24 23 23 23 22 23 23 23 24 24 25 24 23 22 21 21 21 22 24 24 24 25 25 25 26 26 27 27 27 27 26 26 25 24 24 25 25 25 26 27 27 27 27 27 27 28 28 28 29 29 29 29
21 20 19 19 19 19 19 19 20 21 22 22 21 20 21 21 21 21 20 19 19 19 19 19 20 20 20 20 20 19 20 21 22 22 22 22 22 21 22 23 24 24 25 25 24 23 23 23 23 23 23 24 24 25 26 26 27 27 28 29 29 29 29 29 28 28 27 27 27 27 27 28 28 28 29 29 30 30 31 31 31 32 32 32 32
16 15 14 14 15 16 18 19 20 20 20 19 19 19 21 21 20 20 19 19 20 21 21 21 21 21 21 20 19 17 17 18 19 20 21 22 22 22 22 23 24 25 25 25 24 23 22 23 25 26 26 26 26 26 27 27 28 28 29 30 30 30 30 30 30 30 29 29 29 29 29 30 30 30 31 31 31 32 33 33 33 34 34 34 35
14 14 13 12 12 13 15 18 20 21 20 20 20 20 21 20 19 18 18 18 19 20 21 21 21 21 21 21 20 19 19 18 18 18 19 19 19 19 20 22 23 24 24 24 23 22 21 21 22 24 25 26 27 28 28 29 29 30 31 31 32 33 33 33 33 33 32 32 32 32 32 33 33 33 33 34 34 35 35 35 35 35 35 35 36
Wind_Direction
177 175 174 175 174 173 173 173 173 173 171 170 167 164 161 158 156 157 159 157 153 150 144 141 140 138 136 132 129 133 132 120 110 101 97 101 105 102 101 100 96 91 88 84 80 79 79 78 77 76 78 78 74 71 66 62 60 57 54 50 47 43 35 32 24 357 4 9 7 6 10 11 11 14 16 14 18 24 27 28 25 20 23 27 29
173 173 172 172 172 170 169 170 171 171 169 168 167 164 164 163 161 162 163 161 159 156 151 150 150 147 144 140 136 137 135 125 117 107 101 103 105 104 100 99 98 94 90 86 83 83 82 81 81 80 79 78 74 70 66 62 59 55 53 51 47 44 39 33 27 10 2 8 11 11 14 16 14 14 17 15 16 21 24 25 26 21 21 25 29
171 171 169 169 169 169 169 170 170 170 168 168 171 172 170 168 169 169 168 166 164 159 155 155 153 150 151 148 144 143 138 130 122 114 106 103 103 105 102 99 99 96 92 90 88 87 86 84 82 81 80 78 73 70 67 63 60 57 53 51 49 46 44 40 34 23 9 9 15 14 14 17 17 15 17 18 19 23 23 23 26 23 20 22 27
169 168 168 168 169 170 170 170 170 169 169 173 178 177 173 173 175 176 172 167 163 160 158 157 152 148 147 147 147 147 142 135 128 119 111 103 102 106 105 101 100 100 97 95 93 90 88 86 84 82 80 77 73 69 67 64 61 58 54 52 51 49 46 44 40 34 24 17 18 18 17 19 19 18 19 20 22 25 26 25 26 26 22 21 26
169 169 169 168 169 170 169 170 171 170 174 177 176 172 172 176 180 178 172 165 163 162 160 157 155 150 146 147 149 149 146 142 134 125 117 108 103 108 110 106 103 104 102 100 98 95 92 88 86 84 80 76 72 67 64 64 64 61 57 53 52 51 48 45 41 37 33 25 19 21 22 22 22 23 23 22 21 23 25 26 25 25 23 21 25
169 170 170 168 168 169 170 172 171 172 176 174 169 169 173 177 175 171 169 166 164 163 161 158 157 154 149 149 151 150 149 145 138 131 123 114 109 111 114 111 106 106 108 107 105 101 96 94 90 86 81 76 72 67 62 62 65 64 60 56 54 52 49 45 42 38 35 31 25 23 24 23 22 23 24 24 23 21 20 21 24 26 24 21 22
171 171 170 169 168 169 171 171 169 171 175 169 164 168 171 170 167 165 166 167 165 162 161 159 157 155 152 151 151 151 149 146 141 135 128 121 117 116 119 116 109 107 110 111 112 109 104 100 95 88 83 78 73 66 60 60 66 68 64 60 57 54 51 47 43 39 37 34 30 26 25 24 23 22 22 25 28 26 21 17 19 22 24 23 20
171 170 170 169 169 170 171 168 166 172 174 166 162 167 167 165 164 163 164 165 163 162 162 160 157 155 154 153 153 153 150 147 143 138 132 129 125 121 123 122 113 108 111 114 115 114 112 108 103 94 86 80 73 65 59 61 71 75 69 64 61 57 54 49 45 42 39 37 33 29 27 26 24 22 22 23 24 21 19 18 17 16 20 24 22
170 170 170 170 170 170 169 165 167 177 175 167 166 168 166 165 164 164 164 163 162 161 161 161 158 156 154 153 154 155 153 150 147 144 139 137 134 128 128 127 119 111 114 118 117 114 111 108 106 102 92 83 75 69 66 66 73 78 71 66 64 61 57 54 49 45 42 39 34 31 30 27 23 20 20 20 18 15 16 21 21 17 19 24 25
169 169 169 170 169 168 166 165 173 181 175 169 169 169 166 165 165 165 164 163 161 160 160 160 159 157 155 153 154 154 153 151 150 149 147 145 142 137 136 134 126 118 117 120 119 114 110 105 104 104 101 93 82 73 70 68 73 79 74 68 66 64 61 58 53 49 46 42 36 33 32 28 24 22 21 20 20 20 19 20 20 18 20 23 21
168 169 169 169 168 166 165 168 175 176 171 169 170 169 167 165 165 164 163 162 160 161 161 160 158 157 155 154 153 152 151 151 152 152 150 150 150 144 142 142 134 124 122 122 120 117 114 109 107 106 104 98 87 76 73 73 76 80 78 72 68 65 63 60 57 54 51 47 42 38 36 30 27 27 25 23 23 23 22 21 21 20 22 22 16
167 168 168 166 166 165 166 170 173 170 168 169 171 170 168 165 164 163 161 161 160 160 161 158 156 156 155 154 152 150 149 152 155 155 151 152 153 145 141 143 140 131 125 123 121 120 120 116 111 107 103 100 94 87 82 80 80 83 82 75 70 68 65 61 59 56 54 52 48 43 40 35 32 31 28 26 25 25 26 26 24 23 23 24 20
166 165 165 166 167 166 168 172 171 167 168 171 171 170 168 166 164 163 161 161 160 159 158 156 154 155 156 154 152 150 150 154 159 157 153 152 150 145 141 143 143 137 130 126 123 122 124 123 117 109 104 102 100 100 96 89 85 87 87 80 72 70 66 61 58 55 52 53 53 50 46 42 39 37 35 33 30 27 27 26 26 26 26 27 24
165 164 164 167 167 167 171 174 170 166 168 171 170 169 168 166 164 163 162 161 160 157 156 155 154 155 158 156 153 149 151 157 160 155 149 147 144 142 140 140 139 135 131 128 127 125 125 124 120 112 106 103 106 113 111 99 92 90 91 88 77 71 67 61 56 53 50 51 53 52 50 47 45 43 41 40 38 33 28 27 27 27 29 32 29
165 164 164 167 168 169 174 176 171 168 169 170 170 169 168 165 163 163 162 162 161 159 156 155 153 153 154 152 144 140 143 151 151 145 143 142 140 138 136 135 132 129 126 125 124 123 122 122 122 115 108 103 109 121 122 111 102 96 95 94 85 73 67 60 54 50 47 48 50 51 50 48 46 45 44 43 42 40 37 36 35 35 36 37 33
164 165 167 170 171 173 177 179 174 172 170 169 168 168 167 165 164 163 162 160 160 158 156 155 152 148 146 143 136 132 136 142 141 141 142 141 139 136 133 130 127 124 122 120 117 116 114 116 118 114 107 104 108 123 130 121 109 101 97 95 89 78 67 59 53 47 45 44 45 47 48 46 45 44 42 43 42 41 42 41 39 38 38 35 29
167 170 173 176 175 176 181 182 177 173 171 169 168 168 167 166 165 164 163 160 158 158 157 155 152 147 144 141 136 132 136 141 141 141 143 142 140 137 133 130 126 122 119 117 114 112 109 109 110 108 104 101 109 129 136 126 112 104 99 95 89 80 70 64 57 50 46 43 40 41 43 43 43 41 41 42 41 40 41 41 38 36 36 32 23
171 174 178 180 179 180 184 184 179 173 170 169 168 168 168 167 166 167 166 163 159 158 157 155 154 151 148 144 141 137 138 143 144 144 145 146 145 141 138 133 128 123 120 117 115 112 107 105 105 105 101 100 110 131 140 130 117 110 106 99 91 83 75 69 63 56 53 49 42 38 36 36 37 37 38 40 40 40 43 44 41 39 39 35 21
176 178 181 182 181 185 188 184 177 171 169 169 169 169 168 167 167 168 168 165 160 157 156 155 155 157 156 153 149 145 143 145 147 146 148 151 150 146 143 138 131 126 123 120 117 113 108 106 104 102 102 101 108 126 137 135 124 118 116 110 101 93 85 74 65 60 59 56 48 39 33 31 31 32 35 37 38 40 43 44 43 42 43 40 31
179 180 183 182 182 188 189 179 171 169 169 169 169 170 169 167 166 167 167 164 161 158 157 156 156 160 164 163 160 156 151 150 150 149 151 155 156 152 149 142 135 130 127 123 119 114 109 105 102 101 104 106 107 117 128 132 129 126 124 117 110 104 96 84 71 62 59 56 49 42 36 32 29 28 30 33 36 38 40 41 41 43 44 42 40
180 182 183 182 184 186 180 169 167 172 174 172 170 169 169 168 167 168 166 164 162 161 161 160 158 160 167 172 173 170 164 158 155 153 153 157 160 158 153 145 139 134 130 124 121 119 115 109 104 99 101 108 110 114 119 124 129 129 124 122 123 119 109 94 79 70 65 57 49 44 42 40 36 32 28 29 32 34 36 38 39 41 43 43 42
181 182 181 182 183 179 170 168 174 177 176 174 171 168 168 169 169 168 167 167 166 164 163 164 163 163 168 176 181 181 177 170 164 160 158 158 161 163 158 149 143 139 133 127 122 122 123 120 113 102 97 101 109 114 119 122 125 126 123 127 131 131 124 113 96 82 69 55 47 43 44 45 45 41 35 31 30 28 30 34 36 37 41 43 42
182 180 180 181 179 173 171 176 179 177 174 174 172 168 167 169 169 170 171 170 168 166 166 167 167 166 168 175 183 186 185 181 174 169 166 161 162 167 163 154 149 145 139 133 128 126 129 130 125 115 103 98 102 111 120 124 125 126 125 125 127 128 128 122 109 93 70 50 45 45 47 50 51 50 45 39 35 28 25 28 29 31 35 39 40
180 179 179 177 172 169 174 178 176 174 173 173 171 168 168 169 170 172 175 174 171 170 170 171 170 168 169 173 179 186 188 185 182 179 172 166 164 168 166 159 154 153 149 144 141 140 140 139 133 126 119 108 101 106 117 123 126 128 128 125 123 122 119 113 106 98 80 60 53 51 51 53 53 54 52 47 42 38 33 30 27 27 29 29 30
176 178 175 169 167 170 175 176 176 176 175 174 173 170 169 171 171 173 176 176 175 174 173 174 174 171 170 172 176 182 186 187 185 182 176 170 167 168 167 162 160 161 159 155 156 157 156 152 144 135 132 123 109 107 115 123 129 131 132 131 125 117 111 107 104 98 84 70 62 57 57 58 57 58 55 49 45 44 45 45 42 36 30 24 21
174 175 170 168 172 176 177 176 177 178 177 177 179 177 175 176 175 175 177 179 179 178 177 177 177 174 173 173 173 177 183 186 185 181 175 171 167 166 166 166 167 169 166 163 165 167 166 162 154 144 140 134 119 111 115 125 134 134 131 126 120 114 110 106 102 96 86 75 66 61 61 63 62 61 57 50 46 48 52 53 50 44 36 29 23
174 172 169 171 176 179 176 173 173 174 173 175 177 176 178 179 178 178 180 181 181 181 181 180 179 178 176 173 173 176 180 184 183 179 175 171 167 167 169 171 173 175 172 168 168 168 169 167 162 156 150 142 132 121 119 127 140 138 130 123 117 115 112 106 99 93 85 76 67 63 62 64 62 58 54 51 48 50 53 50 44 38 33 30 29
176 174 174 176 176 175 173 171 171 170 170 173 175 175 178 182 184 186 189 190 187 185 184 184 185 183 180 175 172 173 177 180 181 179 176 173 172 172 174 176 178 180 178 174 171 170 172 171 168 166 161 153 146 143 139 140 143 141 135 128 121 117 115 109 101 91 84 76 68 64 61 61 61 57 53 51 50 47 43 37 31 28 28 30 30
178 174 173 173 172 172 173 173 172 170 170 173 177 180 184 189 192 195 198 201 201 197 193 191 190 189 186 181 177 176 178 181 182 181 179 180 181 180 178 178 181 183 182 181 178 174 174 177 177 176 173 167 164 166 169 167 157 149 149 145 138 135 130 123 112 95 81 75 70 66 62 59 57 56 54 52 49 45 37 29 26 24 25 30 32
172 169 167 167 169 171 172 171 170 171 172 174 175 179 185 192 196 199 200 202 207 207 203 199 196 194 191 188 187 188 188 186 183 182 182 185 186 184 181 182 186 187 185 186 186 183 182 182 183 184 183 181 180 181 187 190 184 174 167 163 164 165 155 139 127 105 83 74 69 65 61 55 48 45 45 44 42 40 35 29 26 23 20 25 32
166 166 166 167 170 172 171 170 172 173 174 176 176 176 179 186 193 200 201 202 205 208 207 204 202 200 198 194 193 195 194 188 183 183 184 185 185 184 185 188 191 190 189 190 191 192 190 187 185 187 189 192 194 196 199 201 203 202 193 183 179 181 179 172 160 137 104 79 71 62 54 46 38 33 30 28 28 28 27 26 27 26 25 26 30
165 164 166 170 172 174 173 173 174 173 173 176 178 178 178 180 185 193 200 202 204 206 208 207 205 204 203 200 198 196 191 186 185 186 186 187 188 189 191 194 194 192 192 194 196 197 196 193 191 191 194 199 202 205 207 210 212 214 210 202 196 193 196 200 200 205 235 250 246 51 32 24 20 16 13 11 10 10 13 18 22 24 24 25 29
170 169 171 173 173 174 175 175 175 175 176 178 180 182 182 181 182 185 192 197 202 205 208 209 208 205 203 203 202 197 190 187 187 188 190 191 192 193 194 197 199 196 194 198 201 200 198 198 198 198 201 206 208 209 212 214 216 219 216 210 206 205 209 216 224 235 247 256 261 268 293 327 342 350 354 356 358 358 359 3 9 14 16 18 24
179 180 182 179 176 176 178 178 177 178 180 181 184 186 187 188 187 185 185 191 199 204 207 209 208 205 202 201 200 196 192 190 191 193 195 195 193 193 195 199 202 202 202 206 208 205 201 201 202 204 208 211 212 215 216 218 219 220 215 211 210 212 216 224 232 241 250 257 263 266 271 281 295 311 325 336 345 350 351 353 358 3 8 12 15
183 185 185 182 181 181 181 181 181 181 182 184 186 188 189 191 191 190 190 193 197 202 205 208 208 205 201 198 197 197 198 199 199 199 201 198 194 196 201 204 206 207 208 211 213 212 209 207 206 208 210 213 216 219 220 222 224 223 216 211 212 215 222 229 236 245 254 259 263 266 268 269 277 290 303 314 324 333 344 352 352 354 1 5 4
184 184 183 183 184 183 183 184 185 186 187 189 190 191 191 191 193 194 196 198 201 204 206 208 209 207 204 202 201 201 204 209 210 208 206 204 202 204 207 207 207 210 211 210 212 213 213 214 213 213 213 216 220 223 224 226 228 227 222 216 214 218 226 233 240 250 258 262 265 266 263 259 266 278 286 295 307 319 333 342 343 344 349 351 351
186 185 184 184 186 186 186 186 187 188 190 191 190 191 191 192 194 196 197 200 204 207 208 208 208 208 208 209 209 209 212 215 216 214 211 209 210 212 212 209 209 211 211 209 209 211 212 215 217 217 219 221 223 225 228 231 232 231 230 228 226 226 229 234 241 253 260 263 266 269 264 253 252 263 272 274 282 295 308 319 326 330 332 334 337
190 190 188 188 189 188 187 186 186 188 190 191 191 192 192 193 195 196 199 203 206 207 208 208 207 208 210 212 214 216 218 216 214 213 212 212 213 214 213 211 213 215 214 212 212 214 215 218 220 221 223 226 228 229 231 233 235 236 237 239 241 240 238 239 243 254 264 265 265 270 269 254 244 251 264 268 271 280 288 295 302 310 319 325 326
191 191 191 192 193 192 190 188 188 189 190 191 192 194 193 192 193 195 198 203 206 206 206 206 207 209 212 212 212 213 213 212 211 212 213 213 214 213 212 212 215 218 217 216 218 220 221 221 223 223 225 228 231 233 235 237 239 241 242 243 246 247 246 246 248 253 262 266 264 267 271 261 246 247 256 262 267 277 283 287 289 292 301 314 319
192 191 191 193 194 194 193 192 191 190 191 192 193 194 193 193 193 195 198 201 203 204 204 206 208 210 211 211 209 208 208 210 213 214 214 214 214 213 213 214 216 218 219 220 224 227 226 224 225 226 228 231 234 236 239 242 243 244 245 246 249 253 255 255 255 256 261 266 266 266 269 265 254 249 253 258 263 272 280 285 286 283 285 299 309
193 190 190 193 194 194 193 193 193 193 193 194 195 194 194 194 194 196 199 202 203 203 204 206 209 210 209 209 210 210 211 214 216 216 216 216 216 215 216 216 217 218 219 222 227 229 229 228 228 230 232 234 237 239 242 244 246 246 248 249 253 257 260 260 258 258 259 263 265 267 269 268 261 256 256 258 261 266 274 280 282 278 278 287 296
191 190 190 191 192 192 192 193 195 195 194 195 196 195 195 196 197 198 201 203 204 205 205 207 209 209 208 208 210 211 215 219 220 219 219 219 219 220 220 218 217 218 220 223 226 230 231 231 232 235 236 237 239 242 244 246 248 249 251 253 255 259 261 262 262 261 261 261 263 267 270 270 268 265 264 262 262 264 269 275 278 276 276 281 287
192 192 192 190 191 193 194 193 194 195 196 196 197 197 198 199 200 202 205 207 208 209 209 211 212 212 211 211 211 213 217 221 223 224 224 225 225 225 224 220 219 220 222 223 226 230 234 235 237 240 241 242 244 247 249 252 254 254 255 257 259 261 264 266 265 263 262 261 262 264 266 268 270 271 270 268 267 267 269 271 273 274 275 279 282
192 192 192 191 191 193 194 193 193 196 199 201 201 201 203 204 206 207 210 212 213 214 216 218 219 219 218 217 216 217 220 224 226 228 230 232 232 231 227 223 222 224 226 227 229 234 239 241 242 244 246 247 249 252 254 257 258 258 259 261 262 263 266 269 270 268 267 265 263 264 264 265 268 269 270 270 271 271 272 272 271 272 275 277 279
191 190 189 187 186 188 190 192 195 197 199 201 204 206 209 212 213 214 216 218 219 221 222 224 225 226 226 225 224 223 225 227 229 232 235 236 238 237 234 230 229 230 231 232 236 242 247 249 248 248 249 249 251 254 257 259 260 260 261 262 263 266 270 275 277 276 272 269 267 266 266 266 267 268 270 272 272 273 275 276 275 274 275 276 276
188 188 187 185 184 185 187 190 194 197 198 201 204 209 213 217 220 222 224 226 227 227 227 229 232 234 234 233 230 228 228 229 232 234 237 239 241 242 241 240 239 239 238 238 243 250 254 255 253 251 251 252 254 256 258 261 263 264 263 264 265 269 274 279 280 278 274 271 269 269 269 269 270 269 271 273 273 273 274 276 276 275 275 275 276
186 186 186 186 186 186 187 187 190 196 202 205 206 210 215 220 225 228 230 231 233 233 233 234 237 239 239 237 234 232 231 233 235 238 240 242 244 246 247 246 245 243 242 242 246 253 257 258 257 256 256 256 257 258 260 263 266 267 267 267 268 271 274 276 276 276 275 273 271 270 270 271 271 270 271 272 272 272 273 274 275 275 274 275 275
182 181 182 183 184 184 185 185 190 200 208 209 208 212 219 225 228 229 230 233 237 238 236 235 237 239 240 240 238 236 236 238 241 243 244 246 248 249 248 246 244 243 244 246 251 257 260 261 261 261 260 260 260 261 263 266 268 269 270 271 271 273 275 276 275 276 276 275 273 272 272 272 273 273 272 271 271 271 271 271 272 273 273 273 274
180 179 178 180 183 185 187 190 198 207 212 211 212 217 224 227 229 231 234 238 240 238 236 236 238 241 243 244 244 242 240 240 242 244 246 247 249 250 250 249 249 250 253 257 262 265 265 263 262 262 262 262 263 264 266 269 270 271 272 274 274 276 276 276 275 276 276 274 273 273 272 273 273 274 273 273 272 271 271 270 271 272 272 272 273
181 179 178 180 185 190 195 201 208 212 212 212 217 223 226 229 232 236 238 239 238 238 239 241 244 246 248 249 249 247 244 242 245 248 251 254 256 257 258 258 259 261 264 267 270 272 271 265 260 259 261 264 266 268 269 271 272 273 275 276 278 278 278 277 276 277 276 275 274 273 272 272 273 273 274 274 274 273 273 273 273 273 272 272 273
176 173 171 175 182 190 198 204 208 209 209 212 219 224 225 226 230 235 239 242 244 245 246 248 250 251 251 250 251 252 252 251 252 255 257 259 262 263 263 263 265 267 270 273 275 277 276 270 264 262 263 266 268 271 272 274 275 275 276 277 278 278 278 276 275 275 275 274 273 272 271 271 272 273 274 275 275 276 276 277 277 277 276 275 275